Theta_e
307 308 312 315 317 319 321 322 323 323 325 325 323 323 325 326 325 325 327 328 328 327 327 327 326 324 322 325 326 326 327 326 326 326 327 328 327 326 326 327 327 328 329 329 329 326 327 325 325 325 323 321 319 317 318 319 318 316 313 309 312 313 314 312 310 310 311 311 310 308 310 310 308 307 308 307 307 308 306 305 304 304 304 304 306
301 301 305 308 314 316 318 319 319 319 321 323 324 324 325 325 325 326 326 327 328 329 328 327 328 328 327 327 325 324 324 324 326 325 326 326 326 326 326 326 327 327 326 329 329 329 327 326 325 325 324 323 322 320 320 316 317 315 312 311 312 315 314 312 312 311 307 308 306 306 308 309 309 307 306 306 305 305 305 304 304 303 304 304 304
297 299 301 307 312 314 316 318 319 321 322 323 325 324 324 324 325 325 325 327 327 328 328 327 328 327 327 323 325 318 317 324 324 324 324 325 325 325 325 326 326 326 327 325 327 327 328 327 326 326 325 323 322 321 318 318 319 318 315 316 316 311 312 312 312 314 311 304 305 305 304 303 305 303 299 300 303 304 303 301 302 301 303 303 303
297 298 299 302 308 312 314 316 318 319 320 321 322 323 324 323 324 325 325 326 327 327 326 328 328 325 322 320 320 323 319 317 318 317 321 320 322 322 323 325 326 328 329 328 328 328 328 327 327 325 324 323 324 323 321 319 317 317 316 315 316 313 310 312 311 312 312 308 307 304 302 300 302 301 295 302 303 304 300 302 301 303 302 302 301
297 298 298 299 305 309 314 316 318 318 319 320 321 323 324 324 324 325 325 325 326 325 325 326 322 319 318 315 315 316 315 314 315 316 318 319 320 317 320 320 324 325 327 327 324 326 325 325 325 325 325 324 323 323 321 321 321 319 317 315 314 315 314 311 308 310 311 313 311 304 302 298 300 302 304 309 301 301 301 302 302 302 302 302 301
298 299 300 300 304 308 311 313 315 317 318 319 321 322 323 324 324 324 324 325 325 324 325 324 323 324 319 319 319 316 318 316 318 320 316 316 319 314 314 317 321 322 323 324 325 324 326 327 326 325 323 322 321 322 322 320 319 318 318 318 316 316 317 315 312 308 310 310 312 312 312 308 307 304 307 304 305 305 307 303 302 301 301 301 301
294 296 297 298 301 305 309 312 314 315 317 318 318 319 320 321 321 322 324 324 325 323 323 322 322 323 322 322 322 320 319 317 312 312 316 312 315 314 316 313 317 321 319 324 327 327 327 327 325 323 323 323 320 320 321 321 321 319 318 316 317 315 314 313 313 311 306 307 307 308 307 307 308 306 303 302 302 307 305 303 305 303 302 301 300
295 297 298 299 301 305 308 311 312 315 317 314 314 315 317 318 319 320 321 321 322 321 321 323 323 322 321 321 320 319 318 315 308 309 309 311 311 314 314 311 312 314 315 316 318 320 322 323 322 322 323 324 320 321 320 320 319 318 317 317 316 315 314 314 313 312 310 307 305 306 306 307 306 306 306 305 303 298 303 310 309 307 304 303 301
295 296 297 298 299 302 306 308 310 310 309 310 312 313 314 314 315 315 318 319 319 319 320 321 322 322 321 320 317 313 313 310 306 306 309 310 310 307 309 309 310 310 313 315 317 318 318 320 320 320 320 319 316 318 318 318 318 317 316 315 314 314 313 313 312 311 309 309 307 303 304 305 306 304 302 302 300 300 302 302 305 308 307 305 305
292 294 295 297 297 298 299 299 300 301 300 301 302 304 307 310 312 314 317 318 318 318 319 320 320 318 319 317 317 311 307 305 306 308 306 306 308 307 308 309 308 310 311 313 315 317 318 318 318 318 318 317 314 317 317 317 317 316 317 316 314 314 313 313 312 312 311 310 310 307 304 302 301 300 300 301 301 302 299 300 302 301 301 305 307
293 293 293 293 292 293 294 297 298 296 295 296 298 301 305 309 312 314 316 315 315 317 317 318 317 317 319 316 315 312 308 309 307 304 304 305 308 305 306 307 305 308 308 309 311 314 315 314 316 316 315 312 313 314 314 314 314 315 315 314 314 313 312 311 310 310 310 309 309 309 307 307 305 302 304 302 300 297 298 300 303 303 303 303 306
294 292 293 296 296 296 294 296 297 297 295 296 297 297 302 306 309 312 311 312 312 314 315 315 315 315 315 315 314 313 311 310 311 308 307 307 306 307 303 304 304 303 304 305 306 307 308 309 310 311 312 314 313 313 313 313 312 312 312 312 312 311 311 309 309 309 309 308 308 308 308 308 306 306 306 306 305 304 303 302 302 304 303 304 306
293 293 292 294 296 296 296 296 296 297 298 297 298 298 300 303 307 310 310 308 311 311 314 312 312 312 313 313 313 311 311 310 310 309 306 308 306 304 303 303 302 307 306 305 302 301 302 305 303 304 308 309 310 311 310 311 312 310 310 311 310 310 311 310 309 309 309 308 308 307 307 307 307 306 306 306 306 306 304 301 301 303 300 302 304
293 293 292 293 294 294 295 296 296 297 296 297 297 298 299 302 304 309 309 306 306 309 311 310 310 310 310 311 310 310 309 309 309 309 305 307 306 306 304 304 301 301 300 302 302 299 300 301 300 300 300 301 304 307 307 309 310 310 309 308 308 308 308 307 307 307 307 307 307 306 305 306 305 305 306 306 305 304 302 301 300 301 302 301 302
289 291 293 294 295 295 296 296 297 297 297 297 297 298 299 302 303 306 306 304 306 308 308 309 307 307 308 309 310 309 309 308 307 307 305 304 303 303 299 299 302 299 301 299 301 302 301 302 300 299 299 299 299 300 304 307 308 308 307 306 306 305 305 305 305 305 305 304 305 305 304 303 302 302 303 304 305 304 303 302 299 296 296 297 295
292 292 293 294 294 293 293 295 297 297 298 298 298 299 300 301 301 304 306 305 305 305 307 308 307 307 308 309 309 308 305 304 302 301 302 304 302 303 301 300 301 300 297 299 298 300 300 299 298 298 298 299 299 299 303 304 302 302 301 304 304 305 303 302 303 302 302 302 303 303 303 301 301 302 304 305 303 303 303 303 301 298 293 290 293
293 295 294 294 293 293 295 295 296 297 298 300 300 300 301 301 302 303 303 302 305 306 307 307 307 308 307 308 307 306 306 306 305 302 301 301 302 301 301 299 298 298 298 297 298 297 297 298 297 297 297 297 298 298 299 298 298 298 298 297 298 297 297 296 296 297 296 297 298 299 300 299 297 297 297 298 300 301 301 302 302 299 298 293 290
292 292 292 293 294 294 293 294 295 297 298 296 298 298 301 302 303 304 303 304 303 306 307 307 308 307 306 306 305 306 306 305 304 302 302 302 300 299 299 298 296 297 298 296 296 296 295 295 296 295 295 296 295 295 295 294 294 294 293 293 292 291 291 289 290 290 291 291 292 292 292 291 291 291 292 293 293 295 296 298 298 298 298 294 293
292 293 293 293 292 293 294 294 294 294 294 295 296 297 299 299 300 304 304 304 304 305 305 305 306 306 306 305 303 303 304 303 302 302 302 301 299 298 298 296 295 295 296 295 295 293 292 291 293 291 292 292 293 292 292 292 292 291 290 289 289 288 287 286 286 288 290 288 287 288 287 288 289 290 291 289 289 290 291 292 294 296 296 297 294
294 294 293 293 292 292 294 295 295 295 294 295 297 298 299 299 299 299 300 301 303 304 303 303 301 303 302 303 302 303 302 302 300 300 299 298 297 297 296 295 294 293 293 292 291 291 290 290 289 290 289 289 290 289 289 289 288 288 286 288 285 286 286 286 287 285 287 286 286 287 287 287 287 287 289 289 289 288 290 291 291 293 295 296 295
295 294 293 291 292 292 292 293 293 292 292 293 297 298 297 299 299 300 302 302 302 303 304 302 301 300 302 302 301 301 299 298 297 296 296 295 294 294 294 292 291 290 289 290 290 290 290 289 289 288 289 288 289 287 286 286 286 286 285 285 285 285 286 285 285 286 284 284 285 287 288 287 286 287 288 288 288 289 287 288 289 291 293 292 292
295 294 292 292 290 291 292 291 291 290 291 292 293 296 296 298 299 301 302 302 302 302 303 301 301 301 301 299 298 297 296 296 295 294 293 292 291 291 289 290 290 288 289 289 290 288 288 289 289 289 288 287 288 289 285 286 286 286 285 285 283 285 285 285 284 286 286 285 284 285 287 287 286 286 286 286 287 287 286 286 286 287 289 288 288
296 295 294 293 292 291 290 290 290 290 290 290 292 294 296 296 298 300 301 300 301 300 301 301 300 299 297 296 294 292 292 292 292 290 290 290 289 288 288 290 289 288 287 288 288 288 288 288 287 286 288 287 287 286 285 286 285 285 286 285 284 285 286 286 285 285 285 284 284 284 285 284 284 284 284 285 284 284 284 284 285 285 286 287 286
293 293 293 293 291 289 288 289 290 289 289 291 292 291 294 295 297 298 298 297 297 298 298 298 295 293 292 292 291 290 290 290 290 289 289 288 288 288 287 288 288 288 288 286 287 288 287 287 287 287 287 286 287 286 285 284 286 285 286 287 286 285 285 286 286 285 284 283 283 283 284 284 284 284 284 284 284 283 284 284 284 284 284 285 285
293 293 293 291 289 290 292 292 291 290 289 290 292 293 293 292 293 295 294 293 293 293 294 293 292 291 290 290 289 289 289 288 288 288 287 287 287 287 287 287 287 287 287 287 287 286 287 288 288 287 287 287 286 285 286 286 285 284 286 286 286 285 285 285 285 284 285 283 283 283 284 284 283 283 283 283 284 284 284 284 284 284 284 284 284
294 293 291 291 292 291 290 290 291 291 291 291 290 291 291 291 291 291 292 291 291 291 292 291 291 290 289 288 288 288 288 288 287 287 287 287 287 287 286 286 287 287 286 286 287 286 287 287 286 286 286 285 285 285 285 284 284 284 283 283 283 284 284 284 283 283 283 283 283 283 282 283 283 282 283 283 283 283 283 283 283 284 284 284 284
294 293 292 290 290 291 291 290 291 290 290 291 291 291 290 290 290 289 290 291 290 290 290 290 289 289 288 287 287 287 287 287 287 286 286 286 286 286 286 286 285 286 286 286 285 285 284 286 285 286 286 286 285 284 284 283 284 284 284 283 283 282 283 282 283 282 282 283 282 283 283 283 283 283 283 283 283 283 283 283 283 283 284 283 283
291 291 292 292 292 291 291 290 290 290 289 289 289 290 290 290 290 289 289 289 289 289 288 288 288 287 287 286 286 286 286 286 286 286 286 285 285 285 285 285 285 285 285 285 285 285 284 285 284 285 284 284 284 283 283 283 283 283 283 283 282 282 281 281 281 281 281 281 282 281 281 282 282 282 282 282 283 282 283 282 282 282 282 282 282
293 294 293 293 292 292 291 290 289 288 288 288 288 288 287 287 288 288 288 288 288 288 287 287 287 287 286 286 285 285 285 285 285 285 285 285 285 284 284 285 285 285 285 284 284 284 284 284 284 284 284 284 284 284 284 284 284 284 283 283 282 282 281 281 281 281 281 281 281 281 281 281 283 284 285 285 286 286 284 282 282 282 282 282 282
294 295 294 294 293 291 290 289 289 289 289 288 288 288 288 288 288 287 287 287 287 287 287 287 286 286 285 285 285 285 285 285 285 285 284 284 284 284 284 284 284 284 283 283 284 283 284 284 283 283 282 283 283 283 285 289 290 285 284 283 283 282 281 280 280 280 280 281 281 280 281 283 284 284 284 285 286 287 287 285 283 283 282 282 282
295 295 294 293 292 290 289 289 290 290 290 289 289 289 288 288 288 287 287 287 287 287 287 287 286 285 285 285 285 284 284 284 284 284 283 283 283 283 283 283 283 282 283 282 283 283 282 282 282 282 282 282 283 283 288 290 290 290 286 283 282 282 281 280 280 279 279 279 279 280 280 281 281 282 281 284 285 285 285 285 286 286 286 285 283
294 294 293 292 291 291 291 291 290 290 289 289 289 289 288 288 288 287 287 287 287 287 286 286 285 285 285 284 284 284 284 283 283 283 283 283 283 283 282 282 282 282 281 282 282 282 282 282 282 282 282 282 282 286 288 288 289 289 289 284 281 281 281 280 279 278 279 278 278 279 279 280 280 280 281 281 282 284 284 285 285 285 285 285 285
294 293 293 293 292 292 292 292 291 290 290 290 290 289 289 289 288 287 286 286 286 286 286 285 285 284 284 284 283 283 283 283 283 282 282 282 282 282 281 281 281 280 281 281 281 281 281 281 282 281 281 281 280 286 287 288 288 288 289 286 281 280 279 279 278 277 277 277 277 278 278 280 280 281 280 280 280 281 283 284 284 284 284 285 285
293 293 293 294 294 293 293 292 292 291 291 290 289 289 289 288 287 286 286 286 286 285 285 285 284 284 284 283 283 283 282 282 282 282 281 281 281 281 280 280 280 280 281 280 280 280 281 281 281 280 280 280 280 285 286 287 287 288 287 285 279 279 278 278 277 277 277 277 277 277 278 278 278 278 279 280 280 281 282 282 283 283 283 283 284
293 292 293 293 294 293 292 291 290 290 289 289 288 288 287 286 286 286 286 285 285 285 285 284 284 283 283 282 282 282 282 281 281 281 281 281 281 280 280 280 280 280 280 280 280 280 280 279 279 279 279 279 280 284 285 286 286 287 286 284 278 279 277 277 277 277 276 276 277 278 277 277 278 278 279 281 281 282 282 282 282 282 282 282 282
293 293 294 294 294 293 292 292 291 289 289 289 288 287 287 286 286 286 285 285 285 285 284 284 283 283 282 282 282 282 282 281 281 281 281 280 280 280 280 279 278 278 278 278 278 279 278 278 278 278 278 278 279 283 284 285 285 286 285 279 277 277 276 276 276 276 277 277 277 277 277 278 278 278 280 283 284 283 282 282 281 281 281 282 282
295 294 295 295 295 295 293 291 289 289 288 288 287 287 286 285 285 285 284 284 284 284 284 283 283 282 282 282 282 282 281 281 280 280 280 280 279 278 278 277 278 278 278 278 277 277 277 277 277 277 277 277 277 280 283 284 284 285 282 275 275 273 274 275 276 277 277 277 277 278 279 279 279 278 281 284 284 284 282 281 281 281 281 281 281
290 290 290 290 290 289 289 290 289 288 288 288 287 287 286 285 284 284 284 284 284 284 283 283 282 282 282 282 282 281 281 280 280 280 279 279 278 278 278 277 278 278 277 277 277 277 277 277 276 276 277 276 275 278 282 283 283 284 282 275 274 273 272 274 277 278 279 279 280 281 280 279 278 279 283 284 285 283 281 281 281 281 280 280 280
288 291 290 288 289 290 288 288 288 287 287 287 287 286 285 285 284 284 284 283 283 283 283 282 282 281 281 281 281 280 280 279 279 279 278 278 278 278 277 276 276 276 276 276 276 276 276 277 277 276 278 276 276 277 280 282 283 283 281 274 274 272 273 276 278 278 279 279 280 280 280 280 280 281 283 284 285 283 282 281 281 280 279 279 280
286 286 288 288 287 287 287 288 288 288 287 286 286 286 285 285 284 284 283 283 283 283 283 282 281 281 280 280 280 279 279 279 278 277 277 277 277 276 276 275 275 274 275 275 275 276 276 277 277 276 276 277 276 276 277 281 281 282 282 277 273 273 275 277 278 278 278 278 279 278 279 281 282 283 284 284 284 284 282 282 281 279 279 278 281
284 285 286 287 288 289 289 288 288 287 286 286 286 286 285 284 284 283 283 283 283 282 281 281 280 280 279 279 279 278 278 278 278 277 277 276 276 276 275 274 273 273 274 274 275 275 276 276 276 276 276 276 276 275 274 279 280 281 281 280 275 278 278 278 277 277 277 277 277 278 278 280 282 283 284 284 284 284 284 282 280 279 280 282 283
282 284 285 286 286 285 285 285 286 286 286 286 286 285 285 284 283 283 283 282 282 281 280 280 279 279 278 278 277 277 277 277 276 276 275 275 274 274 273 272 272 273 274 274 274 274 274 275 275 275 275 274 275 275 273 276 279 280 280 281 279 278 279 278 277 277 277 277 277 278 278 280 282 283 283 283 284 283 283 280 279 282 283 282 280
282 283 283 286 285 285 286 286 285 285 286 286 286 285 284 283 283 283 281 281 281 280 280 279 278 277 277 276 276 276 275 275 275 275 274 273 273 272 272 272 273 273 274 273 273 273 273 273 273 274 274 273 273 272 275 273 278 279 280 280 280 279 280 279 277 276 277 277 278 278 279 281 282 282 283 283 282 282 280 279 281 282 281 281 279
282 283 284 284 285 285 285 283 284 285 285 285 285 285 283 282 282 280 280 280 279 279 278 277 276 275 274 274 274 273 273 273 273 273 273 273 272 272 272 272 273 273 273 272 272 272 272 271 271 271 272 272 272 271 273 276 276 278 279 280 280 280 280 279 278 277 277 278 278 278 280 282 282 282 281 281 280 279 278 280 280 280 279 278 276
282 282 281 282 285 284 283 282 282 283 284 284 284 284 281 281 279 278 279 279 278 277 276 274 273 273 273 273 272 272 271 271 271 272 272 272 271 271 271 272 272 272 272 271 271 271 270 270 270 270 270 271 272 271 271 273 277 277 278 279 279 280 280 280 277 277 278 278 279 281 281 281 281 280 279 278 277 277 278 278 278 278 276 275 275
279 279 279 279 279 279 280 280 278 279 280 280 281 282 281 280 277 278 278 278 276 275 274 273 272 272 272 272 271 270 270 270 271 271 271 271 271 271 271 271 271 270 270 270 269 269 269 269 269 269 270 271 271 269 270 272 275 276 277 278 279 279 278 278 278 277 279 280 280 280 280 279 277 276 275 274 273 274 276 276 276 275 274 274 274
280 279 278 278 278 279 279 278 278 277 278 277 277 277 279 277 277 278 277 276 275 274 273 272 272 271 271 271 270 270 270 270 269 270 270 270 271 271 271 270 269 269 268 268 268 268 268 268 268 269 270 271 270 270 270 272 274 275 276 277 277 276 277 278 277 277 278 278 278 277 276 276 275 276 275 275 274 274 272 271 272 272 273 273 274
277 276 276 276 278 279 278 277 278 276 276 275 275 276 275 276 276 276 276 275 274 273 272 272 271 272 271 271 271 271 270 270 270 270 270 270 270 270 270 269 269 268 268 267 267 267 267 268 268 270 270 269 269 269 271 273 274 275 276 276 276 276 276 276 276 276 277 276 274 274 273 272 272 271 271 270 269 269 270 270 270 271 271 272 273
276 274 275 278 277 277 277 277 277 274 274 274 273 272 273 275 275 274 275 274 273 273 272 271 272 272 271 271 271 271 270 270 269 269 269 269 269 268 268 268 268 268 268 268 266 267 268 268 269 269 269 269 269 270 271 276 276 277 276 275 275 275 275 275 277 278 275 272 270 270 270 270 269 269 268 267 267 267 267 268 268 269 269 270 270
274 274 273 273 274 276 276 276 275 273 273 273 271 271 272 273 273 274 275 274 273 272 272 272 272 271 271 270 270 269 269 269 268 268 267 268 271 272 271 269 269 271 273 275 273 267 269 269 268 268 270 269 269 271 276 277 276 276 277 277 277 277 277 276 277 276 273 267 268 268 268 268 267 266 265 265 265 265 266 266 266 268 268 268 268
274 274 273 274 274 274 274 274 274 272 272 271 271 271 271 272 273 274 274 274 273 272 272 272 271 271 270 270 269 268 268 268 268 267 268 268 269 272 275 275 274 275 276 277 277 276 276 275 271 268 271 275 275 276 276 275 275 275 276 276 276 276 276 276 275 271 267 266 267 266 266 266 266 265 265 265 265 265 265 265 265 266 266 267 267
Wind_Speed
8 7 8 11 12 11 10 9 9 9 10 10 9 10 11 12 11 13 11 9 9 9 8 9 8 7 6 9 9 7 7 6 6 5 6 6 6 6 6 6 6 6 6 6 6 5 5 4 4 5 5 4 5 5 6 6 5 4 4 3 6 5 5 5 4 3 4 6 6 6 8 6 7 6 8 7 8 7 5 6 6 6 6 7 8
0 4 7 5 7 9 9 8 8 10 10 10 12 13 11 11 13 12 9 10 11 12 11 10 9 10 10 10 8 7 7 7 8 6 7 6 7 7 6 6 6 6 6 6 6 6 6 6 6 6 5 4 6 6 6 4 4 3 3 3 4 6 5 4 4 4 2 5 4 6 5 6 7 5 7 7 5 6 6 6 6 6 7 7 7
6 7 6 8 10 10 9 10 10 13 12 13 13 12 11 10 11 11 11 11 11 11 11 11 10 9 9 6 8 5 4 5 6 6 6 7 7 7 7 6 6 6 6 6 6 5 6 7 7 7 6 6 5 6 6 6 6 6 5 6 6 3 4 1 3 7 5 1 0 2 4 6 3 3 3 4 6 7 5 4 5 5 8 7 6
10 11 12 10 10 10 9 10 12 10 10 10 10 12 11 10 10 11 11 11 11 11 12 11 10 7 5 5 5 6 5 4 4 4 5 5 6 6 6 6 6 7 7 7 7 7 7 7 6 5 6 6 7 7 6 6 4 4 5 6 5 3 2 5 4 6 5 2 3 2 1 1 8 3 2 6 6 5 2 6 3 6 6 6 5
13 10 8 7 9 11 14 14 10 11 12 12 12 12 10 13 13 13 11 12 11 11 12 9 6 5 4 2 2 2 1 3 5 6 6 6 6 6 6 5 6 6 6 6 6 6 5 5 5 6 7 7 5 5 5 7 7 7 6 4 5 6 6 3 2 5 6 6 4 1 3 1 5 5 6 8 2 2 4 5 5 5 6 7 6
11 13 14 13 13 11 10 9 10 11 12 12 12 12 11 11 11 10 9 9 11 11 11 9 10 10 8 8 8 6 8 6 10 11 7 7 8 4 4 4 5 5 5 6 6 5 5 6 5 5 3 3 4 5 6 5 5 5 7 8 8 8 7 5 4 1 4 4 5 5 4 4 6 3 3 7 1 5 5 3 4 6 6 6 6
7 6 5 5 8 8 10 11 12 12 12 10 9 9 10 9 9 10 10 10 10 8 9 9 8 9 12 13 11 11 10 7 2 2 5 4 4 5 5 4 4 6 5 5 5 5 5 5 4 4 4 4 3 3 3 5 5 4 0 1 4 3 4 5 6 3 0 3 4 7 6 4 1 3 4 3 10 6 3 3 6 5 5 5 7
9 9 9 8 9 11 14 14 12 14 12 8 8 7 9 9 9 10 8 8 7 7 9 11 11 10 10 10 10 9 9 7 4 3 2 5 5 5 4 3 2 3 4 3 2 2 1 1 1 1 1 0 1 1 2 1 1 0 2 2 2 3 4 6 6 5 5 3 1 3 4 4 3 2 5 7 8 8 12 9 3 3 3 5 6
9 10 10 11 12 12 10 10 11 9 6 8 9 9 8 7 6 6 7 7 7 9 10 10 10 11 10 8 8 5 4 4 3 3 4 5 5 3 4 3 3 3 4 5 5 4 4 4 4 4 5 3 3 5 3 3 3 2 1 1 1 2 3 3 2 2 1 2 1 1 2 5 4 3 3 2 4 7 9 5 13 10 7 5 6
6 7 7 7 7 7 5 3 3 6 5 4 4 4 5 6 7 8 9 8 8 9 10 10 9 8 9 9 9 5 4 3 4 5 4 4 5 6 6 5 5 5 4 4 5 5 4 4 4 5 5 4 4 4 4 4 3 2 4 6 3 2 1 3 3 2 1 2 2 1 1 2 2 2 2 1 4 6 10 9 8 10 13 11 10
6 6 5 5 4 5 3 6 5 3 4 4 5 5 6 7 8 10 10 8 7 9 9 10 8 8 9 8 9 8 6 7 6 4 4 4 6 5 6 6 4 5 5 4 5 5 4 4 4 4 4 4 4 3 2 2 3 5 4 3 3 3 3 2 2 2 1 2 2 0 2 3 3 2 5 3 3 3 6 8 8 9 11 14 7
5 5 4 2 1 1 2 5 5 5 4 5 5 5 5 6 7 9 7 8 7 8 8 9 9 8 7 9 9 9 9 8 8 8 6 7 6 6 4 4 3 3 3 3 2 3 5 4 3 3 4 4 4 3 3 2 2 2 3 3 3 3 3 3 3 2 2 1 1 1 1 1 2 3 3 4 6 7 8 11 10 9 8 7 8
5 5 4 4 5 5 5 5 4 5 6 6 6 5 5 5 7 9 9 7 8 7 9 9 8 8 8 8 7 8 8 8 8 7 6 7 6 6 5 5 3 4 2 3 1 2 3 4 3 3 4 4 4 5 4 4 5 3 3 4 4 5 4 4 4 5 5 5 3 3 4 4 4 3 3 4 4 5 6 9 10 7 12 13 7
5 5 4 5 5 5 4 5 5 4 5 5 5 6 6 6 7 9 9 7 6 7 8 8 8 7 7 7 7 8 7 7 7 8 6 6 6 6 5 5 5 4 3 2 2 2 3 4 3 2 2 3 4 4 3 3 4 4 4 4 5 4 5 5 5 5 5 5 4 3 2 3 3 3 5 6 6 5 6 8 11 9 8 11 11
3 4 5 5 5 5 5 5 4 4 4 4 4 5 5 6 6 7 7 6 6 7 6 8 6 6 6 6 7 7 8 7 6 6 7 6 5 5 4 4 5 3 4 3 3 4 4 4 4 3 3 3 3 4 4 4 4 5 4 4 4 3 4 4 4 4 4 4 4 3 4 3 4 5 3 3 3 5 7 8 10 15 15 11 9
4 4 5 5 5 4 4 4 5 5 5 4 5 4 5 5 5 6 7 7 6 6 6 7 6 6 6 7 7 7 6 6 5 4 4 5 6 6 5 5 5 5 3 4 4 5 5 5 4 4 4 4 4 4 4 4 3 4 4 4 4 3 4 5 4 4 5 5 4 4 3 3 3 4 4 4 3 3 4 5 7 8 11 16 16
4 5 5 5 3 4 4 5 5 4 4 5 5 5 6 6 6 6 5 5 6 6 7 6 7 7 6 7 7 7 8 7 8 6 6 5 6 6 6 5 5 4 5 4 5 4 4 4 5 4 5 5 5 5 5 4 5 5 5 6 6 4 6 4 4 4 3 3 3 3 2 2 3 2 2 3 3 3 3 4 4 6 8 10 10
4 3 3 3 4 4 4 3 4 5 5 4 4 4 5 6 6 7 6 7 5 7 7 7 8 8 7 7 6 7 8 7 8 8 7 8 6 6 6 6 4 4 5 4 5 5 5 4 5 5 5 6 5 4 4 4 5 5 5 6 4 4 5 3 3 3 3 2 2 2 2 3 3 3 3 3 2 3 3 3 3 3 4 8 7
4 4 3 3 3 4 4 4 3 3 4 5 4 4 4 4 5 7 8 6 7 6 6 5 6 6 6 7 7 7 6 7 7 8 7 9 7 6 6 6 5 5 6 6 6 6 5 5 6 5 5 5 5 5 4 5 5 5 5 5 4 4 4 4 3 3 2 3 3 3 2 3 4 5 4 4 3 3 3 3 4 3 4 5 9
5 4 4 3 3 4 4 5 5 5 4 4 5 4 5 4 5 4 5 5 6 6 6 7 5 7 6 6 6 7 7 8 7 8 7 7 7 7 7 6 6 5 5 5 5 6 6 6 5 6 6 5 6 4 4 5 5 6 4 5 3 4 4 3 3 3 2 3 3 4 4 4 4 4 5 4 4 4 4 4 4 4 4 5 7
6 5 4 3 3 2 2 1 1 2 1 3 4 6 5 5 5 6 9 7 7 6 6 6 6 6 8 8 7 7 7 7 7 7 8 7 6 6 6 6 5 5 5 6 6 6 6 6 6 6 6 5 6 5 4 5 6 5 4 4 3 3 3 3 2 3 3 4 5 5 5 5 4 5 5 5 5 5 4 4 4 4 5 4 6
5 5 4 4 4 3 1 1 1 3 3 4 3 5 5 5 5 6 7 7 8 6 7 7 6 7 8 8 7 5 7 7 8 7 8 6 6 6 6 5 6 4 5 6 6 5 5 6 6 5 5 5 5 5 4 5 5 5 4 3 3 3 3 3 4 5 5 4 4 4 5 5 4 4 5 5 5 5 4 5 4 5 6 5 4
6 6 5 5 4 4 4 4 3 3 3 4 4 4 5 5 6 6 8 6 6 7 7 7 7 8 8 8 7 6 7 7 9 6 7 7 6 5 5 7 6 5 5 5 6 6 6 6 6 6 6 5 5 5 5 5 4 4 3 3 2 3 3 4 4 3 3 3 3 4 4 4 4 4 4 5 4 4 4 4 6 4 6 6 4
3 3 4 4 4 3 4 4 4 4 4 5 4 4 5 5 6 7 8 7 7 7 7 8 8 8 8 8 8 7 8 8 8 7 8 6 7 6 6 7 6 6 8 5 5 6 6 6 7 6 5 5 6 5 5 5 4 3 3 3 3 3 2 1 1 2 3 3 3 4 5 4 5 5 6 7 5 4 5 5 6 6 5 7 6
4 5 5 4 4 5 6 5 5 5 4 4 5 6 6 5 5 7 7 6 7 7 8 8 9 9 8 9 8 7 8 8 8 7 8 7 7 7 6 7 7 7 6 7 6 5 6 6 7 6 6 6 5 5 5 5 4 3 2 1 1 0 0 0 0 1 3 2 3 4 5 5 5 6 7 7 7 8 7 6 8 8 6 7 6
5 5 5 7 7 5 5 5 5 5 6 5 4 5 6 6 6 5 8 7 6 6 8 9 9 10 8 9 8 8 9 8 8 8 8 7 7 7 7 5 7 8 6 6 7 5 6 6 6 5 5 5 5 5 5 4 3 2 2 1 1 1 1 1 1 1 2 2 3 4 4 4 5 5 7 7 7 7 7 7 7 9 8 6 8
7 7 5 3 5 7 6 5 5 5 5 6 6 6 5 6 6 5 6 7 7 8 8 8 8 9 9 8 8 8 8 8 8 8 7 7 7 7 7 7 5 7 8 7 5 7 4 6 5 5 6 5 5 5 4 3 1 1 0 1 1 1 2 2 2 3 3 3 3 3 4 4 5 5 6 7 8 7 6 7 6 9 9 7 8
4 5 7 10 8 6 7 7 5 5 4 4 4 6 6 7 8 6 6 7 6 8 8 8 9 8 8 9 8 8 8 8 7 7 7 7 7 7 7 6 6 8 7 7 7 7 5 5 5 6 5 5 5 4 3 1 0 0 0 1 1 2 3 3 3 3 3 3 4 4 4 4 4 5 5 6 7 8 7 7 5 5 8 9 9
7 9 9 9 10 8 7 6 6 6 7 6 6 5 4 4 5 6 7 7 7 9 9 9 8 9 8 8 8 6 6 7 7 8 8 7 7 6 6 6 7 7 6 6 5 5 6 6 6 6 5 4 4 3 1 1 1 1 1 2 3 3 3 3 4 4 4 4 4 4 4 4 6 9 11 10 10 9 8 9 7 5 7 8 10
11 12 12 10 7 7 7 7 8 9 9 9 8 7 7 8 7 6 7 7 8 9 10 9 9 9 8 8 8 7 8 7 8 8 7 7 6 6 7 7 6 6 5 5 5 5 6 6 6 5 4 4 3 2 4 6 5 3 3 3 3 3 3 3 3 4 4 4 4 4 5 8 10 11 10 10 10 12 12 9 9 9 9 10 10
12 11 9 8 7 8 8 10 12 13 13 11 8 7 7 7 7 8 8 7 7 9 8 9 10 8 8 8 8 8 8 9 8 8 7 8 8 7 7 7 5 5 5 4 5 6 6 5 5 4 4 4 3 3 8 8 8 8 4 3 3 4 4 3 3 3 4 4 4 4 4 5 7 7 6 9 14 14 14 15 16 15 12 11 11
12 11 7 8 11 12 13 15 13 11 10 10 10 10 9 10 9 9 9 8 8 9 10 9 9 9 9 10 9 9 9 8 8 8 8 7 8 8 7 6 6 6 4 4 6 5 5 4 5 5 5 4 4 6 8 9 9 9 7 3 3 3 3 3 3 3 3 3 3 4 4 4 4 5 7 7 9 14 15 16 17 16 16 17 17
12 9 12 13 14 16 17 14 11 12 13 13 11 11 12 11 11 9 8 9 10 10 10 10 10 10 10 9 9 9 9 8 7 7 7 7 8 7 7 6 6 4 4 6 4 5 5 5 5 6 5 4 3 6 9 9 9 9 8 5 3 2 3 3 3 3 3 3 3 4 3 4 4 9 7 6 7 8 12 16 17 16 16 15 17
8 9 13 14 13 12 13 16 16 14 12 9 9 10 9 8 9 8 10 10 11 10 10 11 10 9 9 9 9 9 9 8 8 7 7 7 7 7 5 5 5 5 6 5 5 6 5 6 5 5 4 3 3 6 9 10 9 8 7 6 2 3 2 3 3 3 3 3 4 4 4 5 4 5 7 9 9 10 9 9 9 8 8 10 13
12 11 12 13 16 15 13 11 12 13 11 10 9 8 8 9 9 10 8 10 9 11 10 10 11 9 9 9 9 9 10 9 8 8 7 7 7 7 6 5 5 5 5 5 5 5 5 4 5 4 4 3 3 8 9 9 8 7 7 5 2 2 2 2 3 3 3 3 4 4 3 4 5 6 7 11 13 12 11 9 9 9 8 8 8
13 15 16 16 15 16 17 18 11 11 11 11 11 9 10 10 8 10 9 8 10 10 11 10 10 10 10 10 11 10 10 9 9 8 8 8 7 6 7 5 6 5 5 5 4 5 4 4 3 3 4 3 4 9 9 9 8 8 7 2 1 2 2 3 3 3 3 4 4 4 5 6 5 5 9 18 17 14 12 13 14 13 11 10 8
15 13 15 14 14 15 13 8 10 12 12 12 11 11 11 11 11 9 10 10 10 11 11 11 11 10 10 10 10 11 11 10 9 10 9 8 8 7 5 4 7 6 6 5 4 3 3 3 3 3 3 2 3 6 9 9 9 9 4 2 2 2 2 3 3 3 3 3 4 5 6 6 6 5 11 19 20 20 11 13 14 15 13 13 11
6 3 5 4 5 5 7 12 12 12 12 10 11 12 12 12 12 10 11 10 10 11 10 11 11 10 10 10 9 10 11 10 9 10 9 7 6 5 5 4 7 7 6 4 3 4 3 3 3 3 2 2 2 6 9 9 9 10 7 3 3 2 2 2 3 3 4 4 5 8 9 7 8 8 17 20 21 16 11 12 12 14 16 15 15
5 6 6 5 6 8 8 8 11 12 11 12 13 14 13 13 12 12 11 12 12 11 12 12 11 10 9 9 9 9 10 10 10 9 8 9 7 7 6 6 6 6 5 4 3 4 4 4 3 2 4 3 3 5 9 9 9 10 6 2 4 3 3 3 3 4 5 5 6 6 13 13 12 15 22 21 23 18 11 11 11 12 13 14 13
5 3 4 6 8 10 10 13 16 16 13 14 14 13 14 13 12 11 12 13 13 11 9 7 7 8 8 7 7 9 9 10 10 9 7 7 6 7 6 7 6 5 5 5 4 4 4 3 3 3 4 3 4 4 6 10 9 9 11 5 3 3 4 6 5 5 5 5 6 7 10 17 21 21 22 23 22 23 14 11 10 10 12 14 12
4 4 6 8 9 12 15 16 13 12 13 14 14 14 14 13 13 13 14 11 7 7 7 7 7 7 7 7 6 7 9 7 7 9 8 7 5 7 7 7 7 5 6 5 5 4 4 3 3 3 4 4 4 4 5 9 9 9 10 8 1 4 4 5 5 6 6 7 7 7 7 14 20 22 23 24 23 23 20 12 9 9 11 17 21
1 5 6 7 6 5 5 5 7 12 13 13 14 15 13 12 12 14 12 9 10 10 9 9 9 9 7 7 7 6 6 8 7 8 9 7 5 6 6 7 6 6 7 6 5 4 4 3 3 3 3 3 3 5 3 7 8 9 9 11 5 4 7 6 6 5 6 5 7 7 7 13 21 22 22 22 23 22 24 12 12 21 25 24 17
4 4 4 8 8 8 9 10 9 11 12 12 14 14 12 12 14 13 9 10 10 10 10 10 9 9 8 8 7 7 7 6 7 7 9 9 6 7 6 6 7 7 7 6 5 4 4 4 3 2 1 1 2 3 6 3 6 8 9 10 12 9 13 6 6 7 7 7 6 7 8 16 22 22 21 22 22 25 18 13 23 23 22 24 18
3 4 8 7 8 7 8 7 9 10 11 12 15 15 13 14 13 8 9 9 9 9 9 9 9 8 8 7 7 6 6 5 7 7 7 9 8 6 6 6 6 6 7 7 4 4 5 4 2 0 1 2 3 2 5 4 5 8 9 11 12 13 13 8 7 6 7 8 7 8 11 21 20 21 21 22 21 19 15 22 22 23 24 20 11
5 4 4 4 7 10 8 7 7 9 9 11 10 14 14 15 10 10 11 12 11 10 10 9 9 9 8 7 7 6 6 5 5 7 9 8 8 7 7 5 6 7 7 7 5 4 4 4 2 3 3 3 2 3 3 3 8 8 10 11 12 13 13 14 8 6 7 8 13 19 20 19 19 20 22 19 15 16 21 21 23 23 20 10 10
2 3 4 3 4 5 7 8 5 5 6 7 7 9 16 11 9 10 11 11 12 12 11 10 9 9 9 8 9 7 6 5 5 5 5 6 8 7 8 7 7 7 6 6 5 5 4 4 4 4 3 2 2 1 1 2 3 5 7 10 12 12 13 13 12 9 14 17 17 17 18 18 15 15 12 10 10 12 20 21 21 19 10 9 9
7 5 6 6 6 8 9 9 10 6 7 6 6 5 7 9 11 10 11 11 11 11 11 10 10 9 8 8 9 8 7 6 5 5 4 5 5 6 7 7 8 8 7 5 5 5 5 5 6 5 3 1 0 1 2 2 3 2 3 5 6 7 10 10 7 6 8 7 10 10 11 14 13 17 16 15 13 14 12 12 9 9 9 10 9
3 4 5 5 7 9 10 9 10 7 5 5 5 6 7 9 8 9 10 11 11 11 12 11 11 9 8 8 8 7 8 8 6 6 6 5 4 5 7 7 8 8 8 7 6 6 6 6 6 5 3 2 0 0 2 2 3 3 4 4 4 5 5 5 6 6 6 7 7 8 9 6 7 8 8 6 6 5 7 9 8 8 8 9 11
5 4 5 8 7 8 8 9 8 5 5 6 5 5 7 9 9 8 10 11 10 9 8 9 9 8 8 7 7 8 8 10 9 7 5 5 6 6 6 5 2 4 6 7 7 6 7 6 5 5 4 3 1 0 2 4 5 7 6 5 4 5 5 4 8 12 7 5 4 6 6 8 7 8 8 8 8 8 7 5 7 8 8 9 9
3 4 4 5 6 6 8 8 6 6 6 7 7 7 8 8 9 9 10 12 11 10 10 10 9 8 8 8 9 9 8 9 9 6 8 5 3 5 3 4 4 5 9 8 8 6 6 5 5 3 4 4 2 2 4 6 6 7 7 9 8 9 10 8 10 12 7 4 5 5 6 7 7 8 9 9 10 10 11 10 7 9 9 8 9
6 6 6 7 7 6 6 7 7 6 6 6 7 7 8 8 9 10 11 12 12 12 10 9 9 9 10 10 12 10 5 8 7 5 9 9 7 4 7 7 5 6 9 12 10 9 9 7 6 2 1 6 3 3 5 5 6 6 7 7 8 8 9 10 10 6 5 4 4 5 6 6 6 7 7 9 9 10 10 11 11 9 7 9 11
Wind_Direction
226 209 204 202 200 202 205 201 205 204 207 198 190 195 192 189 185 195 194 184 179 181 183 181 184 190 198 200 207 201 206 205 210 209 206 205 197 197 198 203 204 208 205 196 204 199 208 229 229 219 217 200 207 222 226 233 222 202 222 205 234 252 260 224 244 207 264 284 275 277 285 251 251 254 249 250 245 251 264 262 257 262 259 263 262
232 217 230 219 210 205 198 199 195 199 212 202 200 198 194 189 190 193 186 188 190 190 188 191 194 197 195 205 199 195 197 201 212 207 207 205 202 197 199 199 200 203 204 207 206 200 202 209 213 219 216 219 220 225 230 221 211 212 208 260 208 226 250 202 215 125 245 232 285 313 304 297 259 252 253 256 262 267 258 255 259 259 263 263 264
227 236 227 212 207 203 196 200 203 204 202 202 206 198 194 192 194 187 187 189 196 193 187 196 199 198 193 196 187 202 221 209 205 203 198 204 206 202 198 195 196 202 203 205 208 212 212 206 208 209 211 221 230 236 221 216 207 211 205 225 254 218 246 254 197 186 234 174 138 342 299 336 337 308 306 270 250 252 258 260 265 261 262 262 268
226 222 220 211 205 205 202 203 205 201 203 206 208 205 200 198 194 190 189 192 194 195 196 200 194 188 192 171 181 179 191 199 205 211 207 206 215 208 207 194 195 200 200 202 207 209 207 211 213 211 218 217 224 234 226 226 205 212 216 231 234 267 220 251 190 202 202 129 298 207 248 59 312 309 302 275 240 249 204 247 227 252 260 268 277
218 226 230 206 202 208 205 207 196 198 203 203 201 202 200 200 199 193 190 193 195 193 196 187 161 160 164 124 121 169 43 154 185 225 210 206 209 204 213 198 198 201 200 202 201 211 213 217 216 215 214 218 219 228 219 214 212 210 197 198 200 216 251 244 235 192 210 204 183 315 334 4 227 282 339 298 213 232 251 233 232 245 259 261 261
215 212 208 202 203 208 212 208 201 206 207 206 202 203 200 202 200 198 195 195 197 195 189 173 179 176 170 179 191 197 209 191 203 206 195 201 208 195 200 192 190 194 193 194 200 205 216 219 225 237 219 200 198 217 225 226 218 190 196 199 212 215 231 257 264 262 237 222 227 221 193 249 292 266 329 303 328 207 236 212 228 225 237 257 252
245 258 256 227 220 208 211 205 204 205 212 202 203 203 205 205 202 198 197 198 196 188 179 175 180 186 189 196 200 202 207 221 206 163 184 202 170 178 186 183 182 179 189 193 201 205 211 221 224 215 209 214 215 233 247 231 230 217 171 199 237 226 206 237 249 228 109 261 236 241 258 263 282 318 279 321 309 308 164 195 257 241 247 247 253
222 224 221 215 210 202 204 207 203 207 204 195 200 201 201 202 195 200 200 196 192 177 178 184 186 192 194 201 202 205 208 205 182 183 168 155 161 169 136 131 127 133 126 115 116 128 153 157 191 218 266 358 91 13 316 331 342 297 184 186 214 213 207 220 240 214 201 254 225 280 295 303 288 228 234 245 277 288 305 294 220 219 247 262 257
214 218 217 211 208 213 216 209 211 207 192 191 198 199 198 196 195 193 198 193 191 179 182 192 194 190 194 195 203 210 182 175 164 136 139 144 120 99 104 101 95 108 129 128 112 102 98 100 96 89 86 60 67 73 47 49 48 39 46 148 174 241 225 262 298 265 205 279 61 268 214 254 282 302 329 318 268 299 294 285 304 311 305 279 272
238 236 237 233 230 228 223 245 225 215 210 208 209 190 191 184 188 189 201 196 190 186 187 192 193 181 188 192 193 180 149 121 131 138 138 132 121 128 127 119 120 111 112 111 109 110 101 90 82 86 87 82 77 85 68 51 35 34 31 28 354 293 254 220 228 255 221 236 237 188 281 348 345 308 277 291 272 234 268 290 296 304 308 306 310
226 226 234 239 244 234 239 218 226 231 220 209 209 200 194 194 191 194 201 192 188 189 185 191 187 183 188 184 178 168 164 154 135 129 128 119 133 141 134 138 128 129 127 139 141 141 120 110 103 97 95 105 95 81 85 83 49 46 48 60 49 27 350 331 286 263 297 313 346 103 223 250 267 297 307 276 272 296 300 289 288 281 282 295 284
210 197 205 216 149 174 163 214 219 220 199 210 214 205 199 199 192 197 198 193 189 188 185 186 182 185 181 174 175 172 164 164 162 161 165 155 153 151 152 119 105 107 126 124 72 80 104 100 111 110 110 108 102 96 66 63 69 85 72 67 62 54 44 33 30 353 321 14 349 298 264 240 266 266 267 281 298 295 294 292 293 310 296 261 294
190 202 209 219 206 204 206 215 199 195 198 200 202 197 199 194 192 192 200 190 190 182 186 181 178 182 176 176 174 165 164 161 159 158 168 157 158 149 148 151 140 122 106 90 40 51 101 103 93 106 105 101 89 71 64 73 75 74 82 72 61 50 45 42 43 28 22 21 344 344 349 348 332 335 327 318 308 306 309 312 306 299 295 299 287
208 209 216 217 216 220 222 217 213 212 207 199 197 191 192 190 193 192 196 184 178 178 180 173 181 175 170 166 161 158 160 157 161 157 168 158 156 158 161 161 156 165 134 139 199 145 93 117 132 110 102 103 109 124 122 96 83 93 80 72 63 57 49 47 43 31 32 30 33 24 12 359 346 357 357 354 327 323 327 310 308 308 293 294 303
235 227 221 221 222 209 208 209 216 221 220 212 203 199 183 192 186 191 179 184 174 175 165 167 163 158 157 153 152 155 152 156 160 160 155 149 154 138 124 122 122 139 128 140 134 114 107 92 94 98 93 86 77 78 86 91 94 82 87 81 87 77 57 49 37 29 16 9 6 18 5 1 358 342 351 312 328 331 321 324 326 320 317 306 293
237 228 243 246 236 231 227 216 215 211 215 214 207 194 188 193 185 187 178 172 170 160 162 156 152 147 145 145 150 142 136 129 120 123 131 139 143 132 129 122 123 125 122 110 90 106 109 102 88 88 85 80 74 79 82 81 90 94 80 69 59 40 51 39 22 25 21 12 8 358 3 336 336 345 340 331 320 308 314 322 322 320 317 313 319
239 226 228 236 237 230 219 212 212 212 212 210 206 193 188 176 176 177 167 162 161 160 146 142 139 135 141 137 135 135 139 141 140 133 124 117 120 121 122 118 116 113 113 101 97 79 91 101 91 76 69 70 67 60 68 72 71 69 69 60 48 39 67 60 46 54 36 30 32 23 10 333 322 335 330 328 323 315 312 303 302 305 308 303 312
246 250 246 223 205 200 203 215 207 201 201 206 210 202 186 177 172 163 160 158 158 146 142 142 135 132 135 131 127 132 131 128 127 124 122 111 103 106 109 112 118 120 113 107 102 97 89 88 91 76 69 64 67 59 64 67 78 71 79 74 63 68 70 54 49 63 31 40 32 11 5 326 291 318 292 286 295 294 298 294 295 293 307 290 287
251 229 210 194 179 177 177 183 196 188 189 188 181 170 163 165 165 158 158 155 149 140 129 119 124 126 130 128 125 117 116 114 111 116 117 116 122 122 119 125 122 122 116 112 104 100 97 85 89 83 73 72 63 58 59 59 68 71 60 69 42 67 76 54 360 39 12 44 10 350 329 325 310 316 314 310 298 290 277 273 270 273 269 263 282
218 217 211 202 198 189 177 171 174 178 175 172 156 148 149 144 131 119 110 115 117 122 124 119 114 115 111 102 93 105 111 117 123 123 119 121 129 127 127 122 127 114 108 112 111 112 109 102 95 96 89 82 76 61 67 70 66 66 64 60 36 63 68 66 12 2 18 25 11 350 333 325 316 324 315 312 308 296 285 282 274 269 264 265 282
212 204 194 190 194 203 206 199 137 100 101 131 144 145 141 133 131 140 134 130 126 128 123 123 118 114 116 112 113 112 112 112 109 113 114 117 120 119 117 126 113 109 118 108 109 109 106 104 99 92 93 91 87 75 64 75 70 66 48 59 44 56 61 31 44 13 15 23 3 349 329 324 328 323 308 312 310 301 301 285 277 273 268 252 256
199 194 179 181 190 190 165 92 85 101 103 111 113 122 134 139 142 135 129 135 135 135 129 127 122 122 118 117 114 112 115 112 110 109 111 115 116 115 124 109 105 121 109 110 104 104 101 98 94 92 86 82 82 81 68 73 72 63 42 33 50 44 46 28 32 13 359 5 358 334 313 314 319 303 300 300 296 303 299 296 285 272 275 271 238
190 180 181 183 179 171 160 149 134 124 123 122 124 132 135 135 137 141 136 141 138 134 125 124 123 122 117 115 116 114 114 112 110 112 114 115 114 113 114 112 115 111 92 100 109 102 101 97 90 88 86 79 76 76 65 79 81 83 68 35 45 55 50 29 16 352 331 331 336 314 299 302 314 318 301 292 297 294 291 286 287 280 279 278 264
159 160 163 171 161 138 135 143 137 135 143 146 141 134 135 143 145 139 140 141 134 131 131 123 118 115 118 117 117 119 114 118 118 123 121 119 116 114 115 112 117 108 103 97 99 106 98 97 96 89 86 83 72 70 67 68 74 76 58 38 19 33 43 40 3 319 321 333 320 326 317 328 333 331 321 321 316 309 310 307 296 291 281 284 275
160 170 169 156 154 166 178 172 166 163 159 156 154 155 151 150 151 146 142 143 134 133 128 125 125 124 124 122 123 124 123 124 125 125 122 121 119 119 114 119 115 105 110 110 95 93 99 96 96 96 88 79 77 74 70 57 49 49 61 40 1 354 261 310 273 287 300 321 328 325 315 328 335 327 318 323 319 320 316 313 304 300 295 283 278
170 171 166 184 188 187 182 180 172 173 168 163 163 162 159 155 159 150 142 139 137 129 130 130 132 130 131 128 131 129 131 132 130 127 128 127 124 120 119 111 118 117 109 100 105 93 102 100 94 94 92 86 78 71 68 60 43 29 22 346 312 299 289 295 314 326 334 327 324 315 312 317 321 318 309 308 309 307 309 304 298 294 291 285 284
183 184 185 177 194 197 190 186 183 176 174 170 166 170 166 156 150 147 143 139 140 134 133 131 133 132 134 136 138 137 135 134 132 131 128 124 122 126 121 121 126 118 113 108 103 99 87 97 94 88 78 75 70 67 65 56 38 5 302 293 298 304 330 350 351 341 337 327 315 306 307 309 308 301 300 300 302 300 294 291 289 292 292 293 291
160 178 190 198 199 193 191 186 177 180 179 177 179 174 169 164 157 151 143 139 138 134 134 134 136 136 138 140 139 137 134 133 132 128 126 127 126 123 122 126 121 107 107 110 112 107 103 91 86 81 71 72 74 72 67 65 251 247 262 290 305 336 342 346 344 337 335 323 314 309 304 301 294 290 288 290 293 297 299 297 289 285 296 303 301
191 206 204 197 199 193 186 184 184 175 182 183 177 174 159 151 151 151 148 148 145 139 140 140 139 140 142 139 134 131 128 129 127 126 127 126 122 121 119 112 103 101 98 105 106 107 103 86 71 73 70 69 88 87 83 24 19 336 336 338 331 334 337 338 334 334 331 325 314 304 298 292 287 286 288 289 292 296 306 311 314 312 308 305 303
206 209 206 201 192 180 187 183 186 188 186 184 180 178 173 163 161 157 152 156 145 147 143 144 142 142 141 139 136 134 134 132 129 128 126 122 119 113 104 95 90 95 100 103 98 86 85 87 85 73 80 91 91 82 17 19 15 8 351 343 337 328 332 331 329 325 319 312 302 297 294 292 295 296 297 299 304 312 312 311 313 321 317 312 306
217 214 205 189 183 186 186 194 197 194 191 183 178 171 164 162 164 162 159 159 149 144 145 145 145 146 143 140 138 140 139 136 136 128 129 125 118 112 101 97 94 91 94 91 91 84 80 82 87 87 77 68 58 30 14 14 7 360 5 351 338 326 328 323 312 304 302 307 303 300 296 298 299 304 306 308 322 322 321 317 317 314 314 316 318
221 214 189 184 192 192 197 200 200 196 187 181 177 175 170 173 168 167 162 156 151 150 150 150 149 148 149 147 145 142 136 137 135 132 128 122 115 111 111 113 111 102 93 88 76 82 78 71 72 69 63 49 33 9 10 7 1 357 351 3 355 330 309 304 294 293 290 296 301 305 302 300 302 308 317 317 319 323 323 322 320 321 319 318 312
219 199 196 198 198 200 201 200 192 193 191 190 175 170 180 173 169 165 151 157 157 156 153 151 155 153 152 147 146 140 136 134 132 128 124 117 115 113 115 114 110 115 99 81 79 73 66 61 62 55 46 34 27 358 6 1 356 354 2 41 355 314 300 290 296 299 301 307 310 310 312 311 314 322 322 318 314 315 317 317 313 310 307 302 306
225 207 203 205 204 206 204 199 196 192 188 174 178 175 167 159 155 152 161 164 158 159 157 155 154 155 151 148 145 140 136 135 133 127 124 121 118 117 114 113 113 97 92 86 68 67 59 55 54 56 42 27 20 354 1 357 359 2 12 17 317 301 297 303 311 314 318 323 319 324 324 329 329 332 325 322 320 314 311 307 305 299 294 291 292
220 214 212 208 206 205 200 193 195 185 172 163 169 167 153 152 160 162 168 162 164 156 158 158 155 154 151 150 146 142 137 137 134 130 126 123 122 119 112 110 104 98 92 84 71 66 54 56 49 49 50 23 4 357 358 1 2 359 15 3 304 298 316 325 315 315 317 316 318 315 323 323 331 331 321 328 326 322 321 315 306 302 290 285 287
221 212 214 207 204 201 195 200 179 160 171 172 168 156 157 161 159 164 163 168 162 162 160 159 157 159 159 156 149 144 141 140 138 135 132 129 124 125 123 120 104 92 83 87 64 63 55 47 46 52 50 25 352 356 359 4 2 0 16 335 321 344 344 334 329 327 327 323 326 328 329 327 323 322 320 331 332 330 324 320 316 312 309 302 288
228 214 218 212 207 202 197 160 160 171 165 172 161 157 156 156 164 169 167 166 167 168 168 165 161 160 158 157 154 147 145 144 144 139 137 136 132 125 116 115 103 94 91 79 83 76 74 60 41 44 50 20 5 348 359 5 1 359 19 350 358 359 339 344 339 323 326 329 324 326 320 319 322 315 328 335 335 334 322 318 316 312 310 309 306
260 254 238 209 187 157 150 166 164 169 170 159 160 160 158 162 167 166 168 171 174 175 170 166 165 162 159 157 156 151 146 146 148 145 140 133 122 111 110 108 114 115 99 96 91 80 64 68 57 31 45 47 14 349 358 2 0 2 19 10 352 359 341 340 337 332 337 322 310 318 326 327 327 323 333 336 335 333 321 316 312 312 312 314 312
227 212 207 181 169 160 151 145 156 164 172 161 159 158 160 170 171 171 173 174 181 175 173 172 167 159 156 153 152 151 147 147 144 142 140 137 134 127 119 103 99 98 102 103 87 84 73 61 66 50 26 48 26 357 349 2 3 6 17 22 3 347 335 347 346 341 334 323 328 331 336 334 332 331 334 335 335 333 322 317 314 310 312 307 306
236 252 192 154 134 126 148 163 176 181 163 162 159 163 169 170 173 171 178 185 183 176 164 147 143 147 147 146 148 146 146 144 140 133 130 126 126 118 114 109 98 100 106 96 91 88 94 80 71 58 39 39 28 356 339 359 8 10 12 18 339 344 349 349 349 339 333 337 335 332 332 335 335 335 334 332 331 330 325 317 317 315 307 304 309
201 173 136 145 165 168 175 181 176 159 160 162 163 163 174 176 171 176 189 181 156 138 136 138 137 138 139 141 138 144 140 134 135 134 126 118 117 120 117 110 110 102 98 93 94 102 105 96 71 57 59 26 20 346 326 354 7 10 7 7 311 346 342 349 337 336 339 337 332 329 318 330 333 332 331 331 329 329 329 327 321 305 306 314 320
81 149 153 150 158 158 149 153 161 161 163 165 167 173 173 170 174 186 179 147 142 144 142 145 149 147 143 138 135 127 125 129 130 128 124 115 108 105 107 109 106 108 109 107 105 110 115 97 76 58 51 23 344 330 318 340 3 3 5 6 15 354 354 344 332 332 329 326 327 321 318 325 330 330 331 331 331 331 333 331 319 321 322 322 322
132 150 180 154 155 168 172 167 160 163 166 169 168 171 173 173 185 182 152 147 147 147 147 147 143 140 140 137 134 134 132 132 131 129 126 120 118 109 103 105 114 116 117 119 120 122 110 86 71 35 47 343 309 300 334 340 344 3 3 9 5 359 353 349 339 332 332 325 317 317 309 323 330 332 333 335 336 336 334 326 327 327 328 330 329
220 184 174 169 163 166 161 162 163 167 171 172 174 175 176 179 182 141 139 137 139 141 140 139 141 140 136 134 132 125 121 121 128 127 120 122 120 114 106 110 117 124 130 130 123 114 94 95 93 248 266 262 268 270 298 339 4 3 5 3 357 355 353 349 344 330 328 321 318 318 323 329 333 335 339 340 339 337 332 332 335 336 337 334 324
189 187 184 179 169 165 154 157 170 170 176 178 181 176 171 178 166 146 149 149 146 144 143 144 143 142 138 135 125 124 124 122 128 133 132 131 126 130 118 119 126 122 145 127 108 104 113 128 150 204 223 236 242 245 255 321 9 6 2 357 355 354 353 350 344 331 321 319 323 326 329 334 339 343 343 342 339 337 340 342 340 339 337 324 324
147 141 148 136 111 129 150 158 170 177 173 179 182 176 176 172 143 151 149 147 145 145 145 147 145 143 144 139 129 124 121 124 125 122 126 133 139 140 131 128 133 144 127 119 123 126 135 156 183 201 206 209 237 234 299 309 324 348 351 356 355 354 349 345 340 327 328 327 328 332 336 343 351 349 345 345 342 342 342 343 342 339 330 327 320
183 177 148 140 147 154 168 171 174 186 175 176 169 170 157 140 158 151 148 146 147 147 144 147 148 145 145 145 142 143 138 131 125 121 116 118 124 125 135 141 143 125 125 130 139 153 158 173 185 187 179 171 34 340 311 288 297 306 327 353 351 347 339 337 331 316 320 326 338 345 350 349 350 349 349 344 343 342 341 339 337 335 330 324 315
166 156 153 146 165 173 173 176 182 181 172 162 159 153 144 145 146 149 145 145 148 154 154 155 153 152 153 155 152 147 144 142 146 142 131 123 102 142 152 150 151 152 145 153 159 170 177 183 179 160 139 132 166 262 278 293 321 352 355 353 344 333 331 333 332 326 340 354 355 355 351 354 348 349 344 337 337 344 337 330 330 329 327 323 327
155 166 170 176 175 177 182 179 177 165 160 157 150 137 141 149 148 148 151 149 151 147 144 147 151 150 155 157 156 159 157 142 129 103 76 74 130 160 148 123 135 129 144 150 164 174 188 187 153 138 141 167 168 239 275 348 1 360 353 354 345 340 335 337 338 345 2 4 356 355 354 355 355 345 340 337 335 337 337 334 328 327 327 329 336
148 145 168 179 187 183 177 182 174 167 165 160 154 150 153 153 152 156 157 155 153 150 154 162 162 161 158 158 157 150 147 142 128 130 129 125 146 146 147 128 158 188 195 187 167 186 189 158 126 159 158 165 173 234 349 12 5 1 0 359 355 354 357 355 355 11 14 16 2 5 355 353 348 346 343 341 339 338 334 336 338 338 332 329 338
162 160 188 191 190 182 181 183 176 163 170 166 161 161 159 162 163 165 165 163 160 161 166 165 165 173 170 162 156 141 148 125 133 131 148 136 124 113 134 138 135 172 189 181 164 153 140 137 142 161 101 111 95 49 35 17 15 13 12 8 11 15 13 14 12 36 11 14 10 360 351 351 347 343 339 337 334 332 331 330 330 333 334 336 335